Home > Weather > Martigny > Past weeks

Flag for Switzerland Past Weather in Martigny, Valais, Switzerland — Yesterday and Last 2 Weeks

Now
70 °F

Scattered clouds.


Feels Like: 70 °F
Forecast: 54 / 71 °F
Wind: 17 mph from West

Location: Sion Airport

Current Time: May 30, 2016 at 6:35:05 PM

Latest Report: May 30, 2016 at 6:20 PM


Visibility: N/A

Pressure: 29.77 "Hg

Humidity: 40%

Dew Point: 45 °F

Location of MartignyLocation

Past Weather in Martigny — Graph

°F

Martigny Temperature Yesterday

Maximum temperature yesterday: 61 °F (at 6:50 AM)
Minimum temperature yesterday: 59 °F (at 7:50 AM)
Average temperature yesterday: 60 °F

High & Low Weather Summary for the Past Weeks

 TemperatureHumidityPressure
High84 °F (May 27, 1:50 PM)94% (May 29, 7:50 AM)30.21 "Hg (May 29, 7:50 AM)
Low41 °F (May 16, 6:50 AM)23% (May 22, 5:20 PM)29.74 "Hg (May 29, 6:50 AM)
Average63 °F54%29.96 "Hg
* Reported May 15 5:20 PM — May 30 5:20 PM, Martigny, Weather by CustomWeather, © 2016

Note: Actual official high and low records may vary slightly from our data, if they occured in-between our weather recording intervals... More about our weather records

Advertising

Martigny Weather History for the Previous 24 Hours

Scroll right to see more
 ConditionsComfort  
Time TempWeatherWind HumidityBarometerVisibility
5:20 PM
Mon, May 30
72 °FScattered clouds.18 mph38%29.77 "HgN/A
4:50 PM70 °FPartly sunny.16 mph40%29.77 "HgN/A
4:20 PM72 °FPartly sunny.13 mph41%29.77 "HgN/A
3:50 PM72 °FBroken clouds.17 mph41%29.77 "HgN/A
3:20 PM70 °FBroken clouds.16 mph40%29.77 "HgN/A
2:50 PM70 °FBroken clouds.9 mph43%29.77 "HgN/A
2:20 PM70 °FBroken clouds.15 mph43%29.77 "HgN/A
1:50 PM70 °FBroken clouds.6 mph43%29.77 "HgN/A
1:20 PM66 °FBroken clouds.2 mph56%29.80 "HgN/A
12:50 PM64 °FBroken clouds.3 mph60%29.80 "HgN/A
12:20 PM64 °FBroken clouds.2 mph60%29.80 "HgN/A
11:50 AM63 °FBroken clouds.3 mph59%29.80 "HgN/A
11:20 AM63 °FBroken clouds.1 mph64%29.83 "HgN/A
10:50 AM61 °FPartly sunny.2 mph72%29.83 "HgN/A
10:20 AM59 °FPartly sunny.2 mph82%29.83 "HgN/A
9:50 AM57 °FLight rain. Broken clouds.2 mph88%29.83 "HgN/A
9:20 AM57 °FLight rain. Broken clouds.3 mph88%29.83 "HgN/A
8:50 AM57 °FLight rain. Broken clouds.3 mph88%29.83 "HgN/A
8:20 AM55 °FLight rain. Broken clouds.2 mph94%29.83 "HgN/A
7:50 AM55 °FLight rain. Broken clouds.2 mph94%29.83 "HgN/A
7:20 AM55 °FLight rain. Broken clouds.1 mph94%29.83 "HgN/A
6:50 AM55 °FLight rain. Broken clouds.2 mph94%29.83 "HgN/A
7:50 PM
Sun, May 29
59 °FMore clouds than sun.2 mph88%29.80 "HgN/A
7:20 PM59 °FLight rain. More clouds than sun.3 mph82%29.77 "HgN/A
6:50 PM59 °FLight rain. More clouds than sun.2 mph82%29.77 "HgN/A
6:20 PM59 °FLight rain. More clouds than sun.1 mph82%29.77 "HgN/A
Weather by CustomWeather, © 2016

See weather overviewHow to use our weather pages